Location: ????????
(55.6333°N, 37.7000°E)
Time: 14:32:31
(UTC+00:00)

USA 281 - Pass Details

Date: 19 May 2025
Orbit: 1078 x 1081 km, 106.0° (Epoch: 28 April)

Event Time Altitude Azimuth Distance (km) Brightness Sun altitude
Rises 23:43:46 0° 30° (NNE) 3,889 8.6 -8.9°
Reaches altitude 10° 23:46:22 10° 35° (NE) 2,930 7.2 -8.7°
Maximum altitude 23:52:49 56° 113° (ESE) 1,271 3.7 -8.2°
Drops below altitude 10° 23:59:15 10° 191° (S) 2,914 4.9 -7.7°
Enters shadow 00:00:13 - 193° (SSW) 3,274 5.2 -7.6°
